World > North America > United States > North Dakota

Nanson, North Dakota Regional Weather

Lat: 48.57N, Lon: 99.78W
Wx Zone: NDZ005Web Search
Nanson Weather Warning NWS WEATHER ALERT FOR THE NANSON, ND AREA - Issued: 225 PM CDT Wed May 5 2021 Nanson Weather Warning  

Our weather pages are very print friendly and they make great conversation starters.

Feedback


°F Click to change Nanson hourly weather to Imperial units.Click to change Nanson hourly weather to Metric units. °C
Nanson Weather Map
UTC Time: 5/5/2021, 21:00
Your Time:

Nanson, ND Regional Weather

Expires:202105052100;;648520
ASUS43 KBIS 052010
RWRND 

NORTH DAKOTA REGIONAL WEATHER ROUNDUP
NATIONAL WEATHER SERVICE BISMARCK ND
300 PM CDT WED MAY 05 2021

NOTE: "FAIR" INDICATES FEW OR NO CLOUDS BELOW 12,000 FEET WITH NO
SIGNIFICANT WEATHER AND/OR OBSTRUCTIONS TO VISIBILITY.



NDZ004>008-012>016-024-026-027-054-052100-
NORTHEAST NORTH DAKOTA
  
CITY           SKY/WX    TMP DP  RH WIND       PRES   REMARKS
GRAND FORKS    PTSUNNY   55  28  35 W9G16     30.15F                  
GRND FRKS AFB  LGT RAIN  52  37  58 NW24G32   30.17S                  
DEVILS LAKE    MOSUNNY   51  31  46 SW12      30.16F                  
$$
 

SKY/WX - Weather  TMP - Temperature  DP - Dew Point  RH - Relative Humidity
WIND - Wind Direction/Speed PRES - Barometric Pressure VSB - Visibility
WCI - Wind Chill Index E13G22 Wind - East Wind 13 mph/Gusts of 22 mph